Waarnemingen

Advertentie
Mijn weer
Terschelling/Hoorn, Nederland (6251): temperatuur & dauwpunt: 18.02.2017 09:00:00 - 24.02.2017 09:00:00 (CET)Terschelling/Hoorn, Nederland (6251): temperatuur 5cm: 18.02.2017 09:00:00 - 24.02.2017 09:00:00 (CET)Terschelling/Hoorn, Nederland (6251): windsnelheid & windstoten: 18.02.2017 09:00:00 - 24.02.2017 09:00:00 (CET)Terschelling/Hoorn, Nederland (6251): windrichting: 18.02.2017 09:00:00 - 24.02.2017 09:00:00 (CET)Terschelling/Hoorn, Nederland (6251): luchtdruk: 18.02.2017 09:00:00 - 24.02.2017 09:00:00 (CET)Terschelling/Hoorn, Nederland (6251): zicht: 18.02.2017 09:00:00 - 24.02.2017 09:00:00 (CET)Terschelling/Hoorn, Nederland (6251): neerslag: 18.02.2017 09:00:00 - 24.02.2017 09:00:00 (CET)
Datum & Tijd tt [°C] td [°C] tt 5cm [°C] ff [km/u] ff [kn] fx [km/u] fx [kn] dd ppp [hPa] vv [km] rr [mm]
24.02.2017 09:00:00 4,6 0,6 4,2 23 12 - - NNW 1009,0 16 -
24.02.2017 08:00:00 4,2 0,8 3,3 29 16 43 23 NW 1007,5 14 0,0
24.02.2017 07:00:00 3,6 0,7 2,4 22 12 65 35 NW 1006,2 13 0,1
24.02.2017 06:00:00 4,5 -0,2 3,8 32 18 54 29 NW 1004,7 15 0,0
24.02.2017 05:00:00 4,8 -2,0 3,7 36 19 58 31 NW 1002,9 15 0,0
24.02.2017 04:00:00 4,6 -3,1 3,6 43 23 61 33 NW 1001,4 21 0,0
24.02.2017 03:00:00 4,5 -3,1 3,5 40 21 61 33 NW 999,8 16 0,0
24.02.2017 02:00:00 4,6 -1,8 3,8 43 23 61 33 NW 998,1 15 0,0
24.02.2017 01:00:00 4,5 0,6 3,5 36 19 72 39 NW 995,9 15 0,0
24.02.2017 00:00:00 4,5 -0,1 3,8 40 21 76 41 NNW 993,4 14 0,0
23.02.2017 23:00:00 4,3 1,9 4,0 43 23 72 39 NNW 990,0 14 0,0
23.02.2017 22:00:00 4,2 2,7 3,9 43 23 65 35 N 986,3 12 0,2
23.02.2017 21:00:00 6,0 5,1 5,8 25 14 54 29 W 983,0 9 0,1
23.02.2017 20:00:00 5,9 4,8 5,6 47 25 61 33 W 981,7 6 0,9
23.02.2017 19:00:00 6,0 4,8 5,5 43 23 65 35 W 980,7 12 0,2
23.02.2017 18:00:00 5,9 4,9 5,6 50 27 86 47 WZW 978,3 7 0,8
23.02.2017 17:00:00 6,1 5,1 5,9 50 27 83 45 ZW 979,2 6 1,0
23.02.2017 16:00:00 6,9 4,4 6,8 65 35 86 47 ZW 980,6 9 0,1
23.02.2017 15:00:00 8,1 5,2 7,8 54 29 72 39 ZW 981,6 12 0,0
23.02.2017 14:00:00 8,8 6,1 8,6 61 33 79 43 ZW 982,7 11 0,2
23.02.2017 13:00:00 7,2 6,6 7,2 61 33 79 43 ZZW 984,3 4,1 1,0
23.02.2017 12:00:00 7,6 6,6 7,3 58 31 79 43 ZZW 986,4 13 0,0
23.02.2017 11:00:00 7,3 6,7 7,0 50 27 65 35 ZZW 988,9 11 0,6
23.02.2017 10:00:00 7,1 6,7 6,9 50 27 65 35 ZZW 991,1 10 0,1
23.02.2017 09:00:00 6,8 6,5 6,4 32 18 40 21 ZZW 992,4 8 1,9
23.02.2017 08:00:00 5,1 4,8 5,0 22 12 32 18 ZZO 995,1 7 3,0
23.02.2017 07:00:00 5,3 5,1 5,2 14 8 18 10 Z 996,5 6 2,4
23.02.2017 06:00:00 5,4 4,9 5,3 18 10 22 12 ZZW 998,0 8 1,7
23.02.2017 05:00:00 5,5 4,8 5,4 18 10 25 14 ZZW 998,9 10 0,3
23.02.2017 04:00:00 5,8 4,4 5,6 14 8 25 14 WZW 999,8 10 0,0
23.02.2017 03:00:00 6,2 4,0 5,9 18 10 32 18 WZW 1000,8 14 0,0
23.02.2017 02:00:00 6,3 3,6 6,0 25 14 36 19 W 1001,4 15 0,0
23.02.2017 01:00:00 6,6 3,6 6,1 29 16 40 21 W 1001,5 13 0,0
23.02.2017 00:00:00 6,7 3,5 6,1 29 16 40 21 W 1001,8 15 0,0
22.02.2017 23:00:00 6,4 3,4 5,8 29 16 43 23 W 1001,7 14 0,0
22.02.2017 22:00:00 6,5 3,3 5,7 32 18 43 23 W 1002,0 14 0,0
22.02.2017 21:00:00 6,6 3,5 5,8 29 16 50 27 W 1001,6 15 0,0
22.02.2017 20:00:00 6,7 4,7 6,1 29 16 43 23 W 1001,7 16 0,0
22.02.2017 19:00:00 6,9 3,9 6,2 36 19 47 25 W 1001,4 21 0,0
22.02.2017 18:00:00 6,9 4,8 6,3 32 18 47 25 W 1001,1 19 0,0
22.02.2017 17:00:00 7,2 4,1 7,0 32 18 50 27 W 1001,3 17 0,0
22.02.2017 16:00:00 7,6 4,5 7,3 36 19 50 27 W 1001,3 17 0,0
22.02.2017 15:00:00 7,7 4,7 7,4 32 18 50 27 W 1001,2 16 0,0
22.02.2017 14:00:00 8,0 4,3 8,0 32 18 47 25 W 1001,4 17 0,0
22.02.2017 13:00:00 7,9 5,4 8,0 32 18 47 25 W 1001,7 15 0,0
22.02.2017 12:00:00 8,2 6,0 8,4 32 18 50 27 W 1001,8 14 0,0
22.02.2017 11:00:00 8,7 6,4 8,7 32 18 47 25 W 1001,8 15 0,0
22.02.2017 10:00:00 8,6 6,8 7,9 36 19 58 31 W 1001,5 15 0,0
22.02.2017 09:00:00 8,3 7,1 8,0 40 21 65 35 W 1001,2 13 0,0
22.02.2017 08:00:00 8,8 7,8 8,4 50 27 65 35 WZW 1000,6 9 0,1
22.02.2017 07:00:00 8,5 7,5 8,0 47 25 65 35 WZW 999,9 12 0,0
22.02.2017 06:00:00 7,8 7,0 7,6 47 25 65 35 WZW 1000,1 10 0,2
22.02.2017 05:00:00 7,7 7,0 7,5 50 27 65 35 WZW 1000,5 6 1,2
22.02.2017 04:00:00 8,0 7,1 7,8 54 29 68 37 WZW 1000,9 7 0,5
22.02.2017 03:00:00 8,0 7,1 7,6 50 27 65 35 ZW 1001,6 9 0,4
22.02.2017 02:00:00 8,0 7,1 7,8 50 27 65 35 ZW 1002,4 10 0,0
22.02.2017 01:00:00 8,2 7,6 8,0 54 29 65 35 ZW 1003,3 9 0,0
22.02.2017 00:00:00 8,3 7,8 8,0 47 25 61 33 ZW 1003,9 8 0,0
21.02.2017 23:00:00 7,7 7,5 7,6 40 21 50 27 ZW 1005,1 2,5 0,2
21.02.2017 22:00:00 7,1 6,8 7,0 36 19 47 25 ZZW 1006,6 2,5 0,4
21.02.2017 21:00:00 6,5 5,3 6,0 32 18 40 21 ZZW 1008,0 16 0,0
21.02.2017 20:00:00 5,9 5,1 5,6 25 14 32 18 ZZW 1009,3 13 0,0
21.02.2017 19:00:00 5,4 4,8 5,1 22 12 29 16 ZZW 1010,7 11 0,0
21.02.2017 18:00:00 5,2 4,4 4,5 14 8 25 14 ZW 1011,7 9 0,0
21.02.2017 17:00:00 6,7 5,1 6,6 18 10 29 16 WZW 1012,2 12 0,0
21.02.2017 16:00:00 7,9 5,2 8,2 22 12 32 18 WZW 1012,7 14 0,0
21.02.2017 15:00:00 8,1 5,1 8,9 25 14 40 21 W 1012,8 14 0,0
21.02.2017 14:00:00 8,4 5,6 9,3 29 16 43 23 W 1013,4 14 0,0
21.02.2017 13:00:00 8,4 5,6 9,2 29 16 43 23 W 1013,5 14 0,0
21.02.2017 12:00:00 8,1 5,5 8,8 29 16 43 23 W 1013,5 14 0,0
21.02.2017 11:00:00 7,9 5,3 8,2 32 18 43 23 W 1013,2 12 0,0
21.02.2017 10:00:00 7,0 5,1 6,8 25 14 40 21 W 1012,7 12 0,0
21.02.2017 09:00:00 6,5 5,1 6,1 22 12 32 18 W 1012,3 11 0,0
21.02.2017 08:00:00 5,7 4,5 4,9 18 10 32 18 W 1011,8 10 0,0
21.02.2017 07:00:00 6,0 4,4 5,2 22 12 36 19 W 1011,3 12 0,0
21.02.2017 06:00:00 6,0 4,2 5,4 25 14 43 23 W 1011,1 13 0,0
21.02.2017 05:00:00 6,4 4,4 5,9 32 18 43 23 W 1010,5 14 0,0
21.02.2017 04:00:00 6,9 4,6 6,6 32 18 43 23 W 1010,7 14 0,0
21.02.2017 03:00:00 7,0 5,3 6,6 29 16 43 23 W 1010,6 15 0,0
21.02.2017 02:00:00 7,2 5,5 6,6 29 16 40 21 W 1010,7 14 0,0
21.02.2017 01:00:00 7,1 5,6 6,6 29 16 47 25 W 1011,0 13 0,0
21.02.2017 00:00:00 7,3 6,2 6,8 29 16 47 25 W 1011,1 12 0,0
20.02.2017 23:00:00 7,6 6,6 7,3 29 16 47 25 W 1010,9 11 0,0
20.02.2017 22:00:00 8,6 7,3 8,3 36 19 54 29 W 1010,8 14 0,0
20.02.2017 21:00:00 8,9 7,6 8,5 32 18 54 29 W 1010,3 14 0,0
20.02.2017 20:00:00 9,0 7,7 8,7 40 21 54 29 W 1010,3 13 0,0
20.02.2017 19:00:00 9,1 7,7 8,8 36 19 50 27 W 1010,1 14 0,0
20.02.2017 18:00:00 9,2 8,2 8,8 36 19 54 29 W 1009,7 13 0,4
20.02.2017 17:00:00 9,4 8,0 9,2 40 21 54 29 WZW 1009,5 14 0,0
20.02.2017 16:00:00 9,4 8,2 9,3 40 21 54 29 WZW 1009,3 14 0,0
20.02.2017 15:00:00 9,2 8,2 9,2 40 21 54 29 WZW 1010,0 12 0,0
20.02.2017 14:00:00 9,2 8,3 9,1 40 21 54 29 WZW 1010,2 9 0,0
20.02.2017 13:00:00 9,1 8,9 9,2 40 21 54 29 WZW 1010,9 4,2 0,0
20.02.2017 12:00:00 8,7 8,2 8,7 40 21 54 29 WZW 1011,5 5 0,0
20.02.2017 11:00:00 8,7 8,3 8,3 36 19 50 27 WZW 1011,8 5 0,0
20.02.2017 10:00:00 7,7 7,6 7,3 32 18 47 25 WZW 1012,3 3,0 0,4
20.02.2017 09:00:00 6,7 6,6 6,6 32 18 43 23 WZW 1012,6 1,4 0,5
20.02.2017 08:00:00 6,8 6,6 6,4 32 18 43 23 ZW 1012,9 1,6 0,5
20.02.2017 07:00:00 6,5 6,2 6,5 32 18 40 21 ZW 1012,9 2,9 0,0
20.02.2017 06:00:00 6,5 5,8 6,3 32 18 43 23 ZW 1013,6 9 0,0
20.02.2017 05:00:00 6,5 5,6 6,3 29 16 40 21 ZW 1014,3 10 0,0
20.02.2017 04:00:00 6,5 5,7 6,2 32 18 43 23 ZW 1014,6 11 0,0
20.02.2017 03:00:00 6,5 5,7 6,3 25 14 32 18 WZW 1015,8 13 0,0
20.02.2017 02:00:00 6,0 5,4 5,7 22 12 29 16 ZW 1016,4 6 0,0
20.02.2017 01:00:00 5,6 5,1 5,5 22 12 25 14 ZW 1017,2 6 0,0
20.02.2017 00:00:00 5,8 5,2 5,5 22 12 25 14 ZW 1017,8 9 0,0
19.02.2017 23:00:00 5,5 5,0 5,4 22 12 25 14 ZW 1018,3 8 0,0
19.02.2017 22:00:00 5,7 5,2 5,5 14 8 32 18 WZW 1018,2 9 0,0
19.02.2017 21:00:00 5,7 5,3 5,4 14 8 22 12 WZW 1018,7 9 0,0
19.02.2017 20:00:00 6,3 5,6 6,1 18 10 29 16 WZW 1018,6 13 0,0
19.02.2017 19:00:00 6,4 5,6 6,2 22 12 29 16 W 1018,8 13 0,0
19.02.2017 18:00:00 6,2 5,5 6,0 18 10 32 18 W 1017,9 12 0,0
19.02.2017 17:00:00 6,6 5,6 6,6 25 14 43 23 W 1017,8 15 0,0
19.02.2017 16:00:00 7,2 5,7 7,8 29 16 43 23 W 1018,1 15 0,0
19.02.2017 15:00:00 8,2 6,1 9,1 29 16 40 21 W 1017,7 13 0,0
19.02.2017 14:00:00 8,3 6,2 9,3 29 16 43 23 W 1017,7 11 0,0
19.02.2017 13:00:00 8,4 6,3 9,3 29 16 40 21 W 1017,7 10 0,0
19.02.2017 12:00:00 8,0 6,6 8,8 25 14 40 21 W 1018,3 8 0,0
19.02.2017 11:00:00 7,4 6,3 7,4 29 16 43 23 W 1018,1 8 0,0
19.02.2017 10:00:00 6,7 5,8 6,0 29 16 40 21 WZW 1018,0 6 0,0
19.02.2017 09:00:00 5,7 5,1 5,2 25 14 36 19 WZW 1017,8 6 0,0
19.02.2017 08:00:00 5,1 4,7 4,8 25 14 36 19 WZW 1017,4 5 0,9
19.02.2017 07:00:00 5,4 4,7 5,2 32 18 40 21 ZW 1017,4 3,4 0,3
19.02.2017 06:00:00 5,1 4,4 4,9 25 14 40 21 ZW 1017,7 5 0,1
19.02.2017 05:00:00 5,3 4,4 4,9 32 18 40 21 ZW 1017,9 7 0,0
19.02.2017 04:00:00 5,0 4,3 4,5 25 14 36 19 ZW 1018,7 3,9 0,0
19.02.2017 03:00:00 4,8 4,3 4,4 29 16 36 19 ZZW 1019,1 4,4 0,0
19.02.2017 02:00:00 4,4 4,2 4,0 25 14 29 16 ZZW 1020,0 3,2 0,0
19.02.2017 01:00:00 3,5 3,4 3,5 25 14 32 18 ZZW 1020,8 0,2 0,0
19.02.2017 00:00:00 4,4 4,3 4,4 25 14 47 25 ZW 1021,8 0,6 0,0
18.02.2017 23:00:00 4,9 4,8 4,7 32 18 47 25 ZW 1022,0 2,3 0,0
18.02.2017 22:00:00 4,7 4,5 4,5 36 19 47 25 ZW 1022,2 1,5 0,0
18.02.2017 21:00:00 4,3 4,2 4,4 32 18 47 25 ZW 1022,7 0,9 0,0
18.02.2017 20:00:00 4,2 4,0 4,1 32 18 47 25 ZW 1023,3 1,0 0,0
18.02.2017 19:00:00 4,3 4,2 4,4 25 14 32 18 ZW 1023,7 0,4 0,0
18.02.2017 18:00:00 4,5 4,4 4,2 22 12 32 18 ZZW 1023,7 0,6 0,0
18.02.2017 17:00:00 4,5 4,3 4,5 22 12 32 18 ZZW 1024,1 2,0 0,0
18.02.2017 16:00:00 3,9 3,8 4,1 25 14 36 19 ZZW 1024,5 1,0 0,0
18.02.2017 15:00:00 3,9 3,8 4,2 25 14 36 19 ZZW 1025,1 0,7 0,0
18.02.2017 14:00:00 3,5 3,4 4,1 29 16 32 18 ZW 1025,5 0,6 0,0
18.02.2017 13:00:00 3,6 3,4 4,1 25 14 29 16 ZW 1026,4 0,4 0,0
18.02.2017 12:00:00 3,5 3,4 4,1 22 12 29 16 ZZW 1026,8 0,7 0,0
18.02.2017 11:00:00 3,4 3,3 3,9 18 10 25 14 ZZW 1026,8 3,0 0,0
18.02.2017 10:00:00 3,1 2,9 3,3 18 10 25 14 ZZW 1026,8 0,8 0,0
18.02.2017 09:00:00 3,0 2,9 3,2 14 8 25 14 ZZW 1026,6 1,2 0,0

tt = temperatuur
td = dauwpunt
tt 5cm = temperatuur 5cm
ff = windsnelheid
fx = windstoten
dd = windrichting
ppp = luchtdruk
vv = zicht
rr = neerslag

Weerstations in de omgeving